EN

Hourly Weather Abergele

Today, 19 June, Saturday

Time Temperature Precipitation Wind Pressure Humidity
00:00 +11°C° 0 mm 1 mps 754 mmHg 90%
01:00 +11°C° 0 mm 1 mps 754 mmHg 90%
02:00 +11°C° 0 mm 1 mps 754 mmHg 89%
03:00 +11°C° 0 mm 1 mps 754 mmHg 89%
04:00 +12°C° 0 mm 1 mps 753 mmHg 88%
05:00 +13°C° 0 mm 2 mps 753 mmHg 87%
06:00 +13°C° 0 mm 2 mps 753 mmHg 86%
07:00 +14°C° 0 mm 2 mps 753 mmHg 81%
08:00 +15°C° 0 mm 2 mps 753 mmHg 75%
09:00 +17°C° 0 mm 3 mps 753 mmHg 69%
10:00 +17°C° 0.1 mm 3 mps 753 mmHg 69%
11:00 +17°C° 0.1 mm 3 mps 752 mmHg 69%
12:00 +18°C° 0.1 mm 3 mps 752 mmHg 68%
13:00 +18°C° 0.1 mm 4 mps 752 mmHg 70%
14:00 +17°C° 0.1 mm 4 mps 751 mmHg 72%
15:00 +17°C° 0.1 mm 4 mps 751 mmHg 74%
16:00 +17°C° 0.1 mm 4 mps 751 mmHg 76%
17:00 +17°C° 0.1 mm 4 mps 750 mmHg 78%
18:00 +15°C° 0.1 mm 4 mps 750 mmHg 80%
19:00 +15°C° 0 mm 4 mps 750 mmHg 84%
20:00 +14°C° 0 mm 4 mps 750 mmHg 88%
21:00 +13°C° 0 mm 3 mps 750 mmHg 92%
22:00 +13°C° 0.2 mm 3 mps 750 mmHg 93%
23:00 +13°C° 0.2 mm 3 mps 750 mmHg 95%

Tomorrow, 20 June, Sunday

Time Temperature Precipitation Wind Pressure Humidity
00:00 +12°C° 0.2 mm 3 mps 749 mmHg 97%
01:00 +12°C° 0.1 mm 3 mps 749 mmHg 97%
02:00 +12°C° 0.1 mm 4 mps 749 mmHg 97%
03:00 +12°C° 0.1 mm 4 mps 749 mmHg 97%
04:00 +12°C° 0 mm 4 mps 749 mmHg 97%
05:00 +11°C° 0 mm 4 mps 749 mmHg 97%
06:00 +11°C° 0 mm 4 mps 749 mmHg 96%
07:00 +11°C° 0 mm 4 mps 749 mmHg 96%
08:00 +12°C° 0 mm 4 mps 749 mmHg 95%
09:00 +12°C° 0 mm 3 mps 749 mmHg 95%
10:00 +12°C° 0 mm 3 mps 749 mmHg 94%
11:00 +12°C° 0 mm 4 mps 750 mmHg 92%
12:00 +13°C° 0 mm 4 mps 750 mmHg 91%
13:00 +12°C° 0.1 mm 4 mps 750 mmHg 91%
14:00 +12°C° 0.1 mm 3 mps 750 mmHg 91%
15:00 +12°C° 0.1 mm 3 mps 750 mmHg 90%
16:00 +12°C° 0 mm 3 mps 750 mmHg 89%
17:00 +12°C° 0 mm 3 mps 750 mmHg 89%
18:00 +13°C° 0 mm 3 mps 750 mmHg 88%
19:00 +12°C° 0 mm 3 mps 750 mmHg 88%
20:00 +12°C° 0 mm 3 mps 751 mmHg 88%
21:00 +12°C° 0 mm 3 mps 751 mmHg 89%
22:00 +12°C° 0 mm 3 mps 751 mmHg 89%
23:00 +12°C° 0 mm 3 mps 751 mmHg 89%

Day after tomorrow, 21 June, Monday

Time Temperature Precipitation Wind Pressure Humidity
00:00 +12°C° 0 mm 3 mps 751 mmHg 89%
01:00 +11°C° 0.2 mm 3 mps 751 mmHg 90%
02:00 +11°C° 0.2 mm 3 mps 751 mmHg 91%
03:00 +11°C° 0.2 mm 3 mps 751 mmHg 93%
04:00 +10°C° 0.7 mm 3 mps 751 mmHg 94%
05:00 +10°C° 0.7 mm 3 mps 752 mmHg 96%
06:00 +10°C° 0.7 mm 3 mps 752 mmHg 97%
07:00 +10°C° 0.9 mm 3 mps 752 mmHg 97%
08:00 +10°C° 0.9 mm 3 mps 752 mmHg 97%
09:00 +10°C° 0.9 mm 3 mps 753 mmHg 97%
10:00 +10°C° 0.4 mm 2 mps 753 mmHg 96%
11:00 +10°C° 0.4 mm 2 mps 753 mmHg 95%
12:00 +10°C° 0.4 mm 2 mps 753 mmHg 94%
13:00 +10°C° 0.3 mm 2 mps 753 mmHg 94%
14:00 +11°C° 0.3 mm 3 mps 754 mmHg 93%
15:00 +11°C° 0.3 mm 3 mps 754 mmHg 92%
16:00 +11°C° 0.2 mm 4 mps 754 mmHg 91%
17:00 +12°C° 0.2 mm 5 mps 754 mmHg 89%
18:00 +11°C° 0.2 mm 6 mps 754 mmHg 88%
19:00 +11°C° 0 mm 6 mps 755 mmHg 88%
20:00 +10°C° 0 mm 6 mps 755 mmHg 88%
21:00 +10°C° 0 mm 6 mps 756 mmHg 89%
22:00 +9°C° 0 mm 6 mps 756 mmHg 88%
23:00 +9°C° 0 mm 5 mps 757 mmHg 88%

22 June, Tuesday

Time Temperature Precipitation Wind Pressure Humidity
00:00 +8°C° 0 mm 5 mps 757 mmHg 87%
01:00 +8°C° 0 mm 4 mps 757 mmHg 87%
02:00 +8°C° 0 mm 4 mps 757 mmHg 86%
03:00 +7°C° 0 mm 4 mps 758 mmHg 86%
04:00 +8°C° 0 mm 4 mps 758 mmHg 83%
05:00 +8°C° 0 mm 4 mps 758 mmHg 81%
06:00 +10°C° 0 mm 4 mps 758 mmHg 78%
07:00 +11°C° 0 mm 4 mps 758 mmHg 73%
08:00 +12°C° 0 mm 4 mps 759 mmHg 68%
09:00 +13°C° 0 mm 4 mps 759 mmHg 63%
10:00 +13°C° 0 mm 4 mps 759 mmHg 60%
11:00 +14°C° 0 mm 4 mps 759 mmHg 57%
12:00 +15°C° 0 mm 4 mps 759 mmHg 54%
13:00 +15°C° 0 mm 4 mps 759 mmHg 55%
14:00 +15°C° 0 mm 4 mps 759 mmHg 55%
15:00 +17°C° 0 mm 4 mps 759 mmHg 55%
16:00 +15°C° 0 mm 4 mps 759 mmHg 59%
17:00 +15°C° 0 mm 4 mps 759 mmHg 62%
18:00 +14°C° 0 mm 4 mps 759 mmHg 65%
19:00 +13°C° 0 mm 3 mps 759 mmHg 73%
20:00 +11°C° 0 mm 3 mps 760 mmHg 81%
21:00 +10°C° 0 mm 2 mps 760 mmHg 90%
22:00 +9°C° 0 mm 2 mps 760 mmHg 90%
23:00 +10°C° 0 mm 1 mps 760 mmHg 91%

23 June, Wednesday

Time Temperature Precipitation Wind Pressure Humidity
00:00 +9°C° 0 mm 1 mps 760 mmHg 91%
01:00 +9°C° 0 mm 1 mps 760 mmHg 92%
02:00 +9°C° 0 mm 1 mps 760 mmHg 93%
03:00 +8°C° 0 mm 1 mps 760 mmHg 93%
04:00 +9°C° 0 mm 1 mps 760 mmHg 91%
05:00 +10°C° 0 mm 1 mps 760 mmHg 89%
06:00 +11°C° 0 mm 1 mps 760 mmHg 87%
07:00 +13°C° 0 mm 1 mps 760 mmHg 79%
08:00 +14°C° 0 mm 2 mps 760 mmHg 72%
09:00 +16°C° 0 mm 2 mps 760 mmHg 64%
10:00 +17°C° 0 mm 2 mps 760 mmHg 61%
11:00 +17°C° 0 mm 2 mps 760 mmHg 58%
12:00 +18°C° 0 mm 2 mps 760 mmHg 54%
13:00 +18°C° 0 mm 2 mps 760 mmHg 54%
14:00 +18°C° 0 mm 2 mps 760 mmHg 55%
15:00 +18°C° 0 mm 3 mps 760 mmHg 55%
16:00 +17°C° 0 mm 2 mps 759 mmHg 58%
17:00 +16°C° 0 mm 2 mps 759 mmHg 61%
18:00 +16°C° 0 mm 2 mps 759 mmHg 64%
19:00 +14°C° 0 mm 2 mps 759 mmHg 70%
20:00 +12°C° 0 mm 1 mps 759 mmHg 76%
21:00 +10°C° 0 mm 1 mps 759 mmHg 82%
22:00 +10°C° 0 mm 1 mps 759 mmHg 79%
23:00 +10°C° 0 mm 1 mps 759 mmHg 76%

24 June, Thursday

Time Temperature Precipitation Wind Pressure Humidity
00:00 +10°C° 0 mm 1 mps 759 mmHg 73%
01:00 +9°C° 0 mm 2 mps 759 mmHg 71%
02:00 +9°C° 0 mm 2 mps 759 mmHg 69%
03:00 +9°C° 0 mm 2 mps 758 mmHg 67%
04:00 +10°C° 0 mm 2 mps 758 mmHg 67%
05:00 +12°C° 0 mm 2 mps 758 mmHg 67%
06:00 +13°C° 0 mm 2 mps 758 mmHg 66%
07:00 +14°C° 0 mm 2 mps 758 mmHg 63%
08:00 +16°C° 0 mm 2 mps 757 mmHg 59%
09:00 +19°C° 0 mm 1 mps 757 mmHg 56%
10:00 +20°C° 0 mm 1 mps 757 mmHg 56%
11:00 +20°C° 0 mm 2 mps 757 mmHg 56%
12:00 +20°C° 0 mm 2 mps 756 mmHg 56%
13:00 +20°C° 0 mm 2 mps 756 mmHg 60%
14:00 +19°C° 0 mm 2 mps 756 mmHg 64%
15:00 +18°C° 0 mm 2 mps 755 mmHg 69%
16:00 +18°C° 0 mm 2 mps 755 mmHg 72%
17:00 +17°C° 0 mm 2 mps 755 mmHg 75%
18:00 +16°C° 0 mm 3 mps 755 mmHg 79%
19:00 +15°C° 0.1 mm 2 mps 755 mmHg 83%
20:00 +14°C° 0.1 mm 2 mps 755 mmHg 86%
21:00 +13°C° 0.1 mm 2 mps 755 mmHg 90%
22:00 +13°C° 0.2 mm 2 mps 755 mmHg 91%
23:00 +13°C° 0.2 mm 1 mps 755 mmHg 91%
Show more